, AK

(GMT )
Portage Glacier

Weather History for PATO - October, 2012

Change the Weather History Date:

Friday, October 19, 2012

  Actual Average Record
Temperature  
Mean Temperature 19 °F -  
Max Temperature 27 °F - - ()
Min Temperature 12 °F - - ()
Degree Days  
Heating Degree Days 46    
Moisture  
Dew Point 16 °F    
Average Humidity 89    
Maximum Humidity 100    
Minimum Humidity 77    
Precipitation  
Precipitation 0.00 in - - ()
Sea Level Pressure  
Sea Level Pressure 29.95 in    
Wind  
Wind Speed 4 mph (WNW)    
Max Wind Speed 9 mph    
Max Gust Speed -    
Visibility 10 miles    
Events      
Averages and records for this station are not official NWS values.
T = Trace of Precipitation, MM = Missing Value Source: NWS Daily Summary

Daily Weather History Graph

Daily Weather History Graph

Search for Another Location

Airport or City:

Trip Planner

Search our weather history database for the weather conditions in past years. The results will help you decide how hot, cold, wet, or windy it might be!

Date:

Astronomy

Oct. 19, 2012 Rise Set
Actual Time 8:48 AM AKDT 6:30 PM AKDT
Civil Twilight 8:04 AM AKDT 7:14 PM AKDT
Nautical Twilight 7:15 AM AKDT 8:03 PM AKDT
Astronomical Twilight 6:25 AM AKDT 8:53 PM AKDT
Moon 2:43 PM AKDT (10/19) 9:19 PM AKDT (10/19)
Length of Visible Light 11h 09m
Length of Day
9h 41m
Waxing Crescent, 25% of the Moon is Illuminated
Oct 19
Waxing Crescent
Oct 21
First Quarter
Oct 29
Full
Nov 6
Last Quarter
Nov 13
New

Hourly Weather History & Observations

Time (AKDT) Temp. Windchill Dew Point Humidity Pressure Visibility Wind Dir Wind Speed Gust Speed Precip Events Conditions
12:53 AM 19.0 °F 11.1 °F 17.1 °F 92% 29.82 in 10.0 mi WNW 5.8 mph - N/A   Clear
1:53 AM 18.0 °F - 17.1 °F 96% 29.83 in 10.0 mi Calm Calm - N/A   Clear
2:53 AM 15.1 °F - 15.1 °F 100% 29.85 in 10.0 mi Calm Calm - N/A   Clear
3:53 AM 15.1 °F 7.7 °F 14.0 °F 95% 29.86 in 10.0 mi NW 4.6 mph - N/A   Clear
4:53 AM 14.0 °F 8.2 °F 12.9 °F 95% 29.87 in 10.0 mi West 3.5 mph - N/A   Clear
5:53 AM 14.0 °F - 12.0 °F 92% 29.88 in 10.0 mi Calm Calm - N/A   Clear
6:53 AM 12.9 °F - 12.0 °F 96% 29.88 in 10.0 mi Calm Calm - N/A   Clear
7:53 AM 12.0 °F - 10.9 °F 95% 29.91 in 10.0 mi Calm Calm - N/A   Clear
8:53 AM 14.0 °F 6.5 °F 12.9 °F 95% 29.91 in 10.0 mi WNW 4.6 mph - N/A   Clear
9:53 AM 15.1 °F 7.7 °F 14.0 °F 95% 29.94 in 10.0 mi WNW 4.6 mph - N/A   Clear
10:53 AM 19.9 °F 13.4 °F 18.0 °F 92% 29.95 in 10.0 mi WNW 4.6 mph - N/A   Clear
11:53 AM 23.0 °F 15.8 °F 19.0 °F 85% 29.95 in 10.0 mi West 5.8 mph - N/A   Clear
12:53 PM 24.1 °F 15.2 °F 19.9 °F 84% 29.97 in 10.0 mi West 8.1 mph - N/A   Clear
1:53 PM 26.1 °F 16.8 °F 19.9 °F 78% 29.97 in 10.0 mi West 9.2 mph - N/A   Clear
2:53 PM 26.1 °F 17.6 °F 19.9 °F 78% 29.97 in 10.0 mi West 8.1 mph - N/A   Clear
3:53 PM 26.1 °F 17.6 °F 19.9 °F 78% 29.97 in 10.0 mi West 8.1 mph - N/A   Clear
4:53 PM 25.0 °F 16.3 °F 19.0 °F 78% 29.98 in 10.0 mi West 8.1 mph - N/A   Clear
5:53 PM 25.0 °F 16.3 °F 19.0 °F 78% 29.98 in 10.0 mi West 8.1 mph - N/A   Clear
6:53 PM 24.1 °F 14.4 °F 18.0 °F 77% 30.00 in 10.0 mi WNW 9.2 mph - N/A   Clear
7:53 PM 23.0 °F 15.8 °F 18.0 °F 81% 30.01 in 10.0 mi Variable 5.8 mph - N/A   Clear
8:53 PM 19.9 °F 13.4 °F 18.0 °F 92% 30.03 in 10.0 mi NW 4.6 mph - N/A   Clear
9:53 PM 21.0 °F 12.4 °F 18.0 °F 88% 30.04 in 10.0 mi WNW 6.9 mph - N/A   Clear
10:53 PM 19.0 °F 13.9 °F 18.0 °F 96% 30.06 in 10.0 mi WNW 3.5 mph - N/A   Clear
11:53 PM 14.0 °F 8.2 °F 12.9 °F 95% 30.07 in 10.0 mi WSW 3.5 mph - N/A   Clear